Weather in Khayyrakan

Russia / Tyva Republic     51°17′48″N   91°33′38″E
temp.,
°C
wind,
m/s
gust,
m/s
humid.,
%
clouds,
%
prec.,
mm/h
press.,
hPa
HPBL,
m
28 february, sun
sun2801:00−28sse119568 0.0 104020
04:00−29sw009744 0.0 104119
07:00−30ese009722 0.0 104419
10:00−25nnw10900 0.0 104332
13:00−21n10870 0.0 1040195
16:00−19nw11840 0.0 1038153
19:00−26s11960 0.0 103920
22:00−25n119296 0.0 104020
1 march, mon
mon101:00−24nw119598 0.0 103820
04:00−25nw1196100 0.0 103720
07:00−26nw0098100 0.0 103520
10:00−23nnw1195100 0.0 103263
13:00−18nnw2182100 0.0 1028250
16:00−16nnw2182100 0.0 1025275
19:00−20nw1188100 0.0 102420
22:00−21nw1193100 0.0 102320
2 march, tue
tue201:00−22ssw0194100 0.0 102220
04:00−21ssw0095100 0.0 102120
07:00−20n0092100 0.0 102220
10:00−17n11880 0.0 102130
13:00−11n118032 0.0 1020145
16:00−9n118353 0.0 1018103
19:00−13e118476 0.0 102021
22:00−13nnw1181100 0.0 102121
3 march, wed
wed301:00−14nw0089100 0.0 101920
04:00−15nw0093100 0.0 101820
07:00−14n0090100 0.0 101720
10:00−12sw0091100 0.0 101658
13:00−8nnw1083100 0.0 1014206
16:00−7n238664 0.0 1012243
19:00−8sse118682 0.1 101521
22:00−8nw1196100 2.2 101930
4 march, thu
thu401:00−8ne2297100 5.4 102257
04:00−15nw1185100 0.3 102420
07:00−17wsw1187100 0.3 102820
10:00−13nw118693 0.0 102851
13:00−11nw118147 0.0 1026215
16:00−9nnw11809 0.0 1025182
19:00−16sw009246 0.0 102820
22:00−17sse118722 0.0 102920